| time (UTC) | temp F | wind direction | speed MPH | gust MPH | rain 1hr in | rain 24hr in | rain mn in | humidity % | barometer mb |
| 20260504045613 | 57 | 157 | 1.0 | 2.0 | 0.00 | 0.00 | 0.00 | 1013.5 | |
| 20260504045513 | 57 | 202 | 2.0 | 3.0 | 0.00 | 0.00 | 0.00 | 1013.5 | |
| 20260504045413 | 57 | 180 | 1.0 | 2.0 | 0.00 | 0.00 | 0.00 | 1013.4 | |
| 20260504045013 | 57 | 202 | 1.0 | 2.0 | 0.00 | 0.00 | 0.00 | 1013.5 | |
| 20260504044314 | 57 | 180 | 0.0 | 1.0 | 0.00 | 0.00 | 0.00 | 1013.6 | |
| 20260504044213 | 57 | 157 | 1.0 | 2.0 | 0.00 | 0.00 | 0.00 | 1013.4 | |
| 20260504044113 | 57 | 225 | 2.0 | 4.0 | 0.00 | 0.00 | 0.00 | 1013.6 | |
| 20260504043713 | 57 | 202 | 2.0 | 4.0 | 0.00 | 0.00 | 0.00 | 1013.6 | |
| 20260504043613 | 57 | 180 | 3.0 | 6.0 | 0.00 | 0.00 | 0.00 | 1013.6 | |
| 20260504043213 | 57 | 202 | 3.0 | 4.0 | 0.00 | 0.00 | 0.00 | 1013.6 | |
| 20260504043113 | 58 | 202 | 4.0 | 5.0 | 0.00 | 0.00 | 0.00 | 1013.6 | |
| 20260504042713 | 58 | 157 | 1.0 | 3.0 | 0.00 | 0.00 | 0.00 | 1013.4 | |
| 20260504042613 | 58 | 247 | 3.0 | 5.0 | 0.00 | 0.00 | 0.00 | 1013.6 | |
| 20260504042513 | 58 | 202 | 2.0 | 4.0 | 0.00 | 0.00 | 0.00 | 1013.6 | |
| 20260504042115 | 58 | 202 | 2.0 | 2.0 | 0.00 | 0.00 | 0.00 | 1013.6 | |
| 20260504042015 | 58 | 225 | 2.0 | 4.0 | 0.00 | 0.00 | 0.00 | 1013.4 | |
| 20260504041913 | 58 | 202 | 3.0 | 4.0 | 0.00 | 0.00 | 0.00 | 1013.3 | |
| 20260504041813 | 58 | 202 | 1.0 | 3.0 | 0.00 | 0.00 | 0.00 | 1013.4 | |
| 20260504040213 | 58 | 225 | 2.0 | 3.0 | 0.00 | 0.00 | 0.00 | 1013.1 | |
| 20260504035813 | 58 | 202 | 2.0 | 4.0 | 0.00 | 0.00 | 0.00 | 1013.1 | |
| 20260504035713 | 58 | 202 | 2.0 | 3.0 | 0.00 | 0.00 | 0.00 | 1013.1 | |
| 20260504035613 | 58 | 225 | 2.0 | 4.0 | 0.00 | 0.00 | 0.00 | 1013.1 | |
| 20260504035513 | 58 | 247 | 2.0 | 2.0 | 0.00 | 0.00 | 0.00 | 1013.1 | |
| 20260504035113 | 58 | 202 | 2.0 | 4.0 | 0.00 | 0.00 | 0.00 | 1013.1 | |
| 20260504034113 | 58 | 225 | 4.0 | 5.0 | 0.00 | 0.00 | 0.00 | 1013.4 | |
| 20260504034013 | 58 | 225 | 3.0 | 4.0 | 0.00 | 0.00 | 0.00 | 1013.3 | |
| 20260504033614 | 58 | 225 | 2.0 | 4.0 | 0.00 | 0.00 | 0.00 | 1013.0 | |
| 20260504032613 | 58 | 225 | 1.0 | 3.0 | 0.00 | 0.00 | 0.00 | 1012.9 | |
| 20260504032213 | 58 | 225 | 2.0 | 3.0 | 0.00 | 0.00 | 0.00 | 1012.8 | |
| 20260504031813 | 58 | 202 | 4.0 | 5.0 | 0.00 | 0.00 | 0.00 | 1012.7 | |
| 20260504031713 | 58 | 225 | 1.0 | 2.0 | 0.00 | 0.00 | 0.00 | 1012.8 | |
| 20260504031313 | 58 | 202 | 3.0 | 3.0 | 0.00 | 0.00 | 0.00 | 1012.7 | |
| 20260504030913 | 58 | 225 | 3.0 | 5.0 | 0.00 | 0.00 | 0.00 | 1012.6 | |
| 20260504024713 | 59 | 202 | 5.0 | 7.0 | 0.00 | 0.00 | 0.00 | 1012.4 | |
| 20260504024613 | 59 | 225 | 4.0 | 6.0 | 0.00 | 0.00 | 0.00 | 1012.4 | |
| 20260504023913 | 59 | 225 | 4.0 | 7.0 | 0.00 | 0.00 | 0.00 | 1012.4 | |
| 20260504023813 | 59 | 225 | 4.0 | 4.0 | 0.00 | 0.00 | 0.00 | 1012.4 | |
| 20260504023713 | 59 | 247 | 4.0 | 6.0 | 0.00 | 0.00 | 0.00 | 1012.4 | |
| 20260504023313 | 60 | 225 | 5.0 | 8.0 | 0.00 | 0.00 | 0.00 | 1012.1 | |
| 20260504022313 | 60 | 225 | 5.0 | 6.0 | 0.00 | 0.00 | 0.00 | 1011.9 | |
| 20260504022214 | 60 | 225 | 4.0 | 6.0 | 0.00 | 0.00 | 0.00 | 1011.9 | |
| 20260504022113 | 60 | 225 | 4.0 | 6.0 | 0.00 | 0.00 | 0.00 | 1011.9 | |
| 20260504021713 | 60 | 180 | 5.0 | 7.0 | 0.00 | 0.00 | 0.00 | 1011.9 | |
| 20260504021613 | 60 | 202 | 3.0 | 5.0 | 0.00 | 0.00 | 0.00 | 1011.8 | |
| 20260504021213 | 60 | 202 | 4.0 | 5.0 | 0.00 | 0.00 | 0.00 | 1012.0 | |
| 20260504021113 | 60 | 225 | 4.0 | 5.0 | 0.00 | 0.00 | 0.00 | 1012.0 | |
| 20260504021013 | 61 | 180 | 3.0 | 5.0 | 0.00 | 0.00 | 0.00 | 1011.9 | |
| 20260504020913 | 61 | 225 | 5.0 | 7.0 | 0.00 | 0.00 | 0.00 | 1011.9 | |
| 20260504020813 | 61 | 225 | 6.0 | 8.0 | 0.00 | 0.00 | 0.00 | 1011.7 | |
| 20260504020713 | 61 | 225 | 4.0 | 6.0 | 0.00 | 0.00 | 0.00 | 1011.7 | |
| 20260504020613 | 61 | 202 | 1.0 | 3.0 | 0.00 | 0.00 | 0.00 | 1011.6 | |
| 20260504020514 | 61 | 202 | 2.0 | 4.0 | 0.00 | 0.00 | 0.00 | 1011.7 | |
| 20260504015813 | 61 | 225 | 5.0 | 7.0 | 0.00 | 0.00 | 0.00 | 1011.8 | |
| 20260504015713 | 61 | 225 | 4.0 | 6.0 | 0.00 | 0.00 | 0.00 | 1011.7 | |
| 20260504015613 | 61 | 225 | 4.0 | 6.0 | 0.00 | 0.00 | 0.00 | 1011.6 | |
| 20260504014913 | 61 | 225 | 3.0 | 6.0 | 0.00 | 0.00 | 0.00 | 1011.5 | |
| 20260504014813 | 61 | 202 | 2.0 | 5.0 | 0.00 | 0.00 | 0.00 | 1011.7 | |
| 20260504014713 | 61 | 202 | 3.0 | 4.0 | 0.00 | 0.00 | 0.00 | 1011.0 | |
| 20260504014313 | 61 | 225 | 4.0 | 6.0 | 0.00 | 0.00 | 0.00 | 1011.4 | |
| 20260504013913 | 61 | 225 | 4.0 | 5.0 | 0.00 | 0.00 | 0.00 | 1011.1 | |
| 20260504013213 | 62 | 202 | 2.0 | 4.0 | 0.00 | 0.00 | 0.00 | 1011.4 | |
| 20260504013113 | 62 | 225 | 3.0 | 4.0 | 0.00 | 0.00 | 0.00 | 1011.4 | |
| 20260504012713 | 62 | 202 | 2.0 | 4.0 | 0.00 | 0.00 | 0.00 | 1011.4 | |
| 20260504012013 | 62 | 270 | 2.0 | 3.0 | 0.00 | 0.00 | 0.00 | 1011.1 | |
| 20260504011913 | 62 | 315 | 3.0 | 4.0 | 0.00 | 0.00 | 0.00 | 1011.3 | |
| 20260504011813 | 62 | 180 | 2.0 | 4.0 | 0.00 | 0.00 | 0.00 | 1011.2 | |
| 20260504011413 | 62 | 225 | 3.0 | 5.0 | 0.00 | 0.00 | 0.00 | 1011.3 | |
| 20260504011313 | 62 | 225 | 2.0 | 4.0 | 0.00 | 0.00 | 0.00 | 1011.4 | |
| 20260504011213 | 63 | 225 | 3.0 | 5.0 | 0.00 | 0.00 | 0.00 | 1011.3 | |
| 20260504010513 | 63 | 225 | 3.0 | 4.0 | 0.00 | 0.00 | 0.00 | 1011.1 | |
| 20260504010113 | 63 | 225 | 3.0 | 4.0 | 0.00 | 0.00 | 0.00 | 1011.4 | |
| 20260504005113 | 63 | 202 | 3.0 | 4.0 | 0.00 | 0.00 | 0.00 | 1011.1 | |
| 20260504003813 | 63 | 180 | 3.0 | 5.0 | 0.00 | 0.00 | 0.00 | 1011.2 | |
| 20260504003713 | 63 | 180 | 3.0 | 5.0 | 0.00 | 0.00 | 0.00 | 1011.2 | |
| 20260504003613 | 63 | 202 | 6.0 | 8.0 | 0.00 | 0.00 | 0.00 | 1011.2 | |
| 20260504003513 | 63 | 247 | 5.0 | 8.0 | 0.00 | 0.00 | 0.00 | 1010.9 | |
| 20260504002213 | 64 | 202 | 3.0 | 5.0 | 0.00 | 0.00 | 0.00 | 1011.0 | |
| 20260504001813 | 64 | 180 | 2.0 | 5.0 | 0.00 | 0.00 | 0.00 | 1010.9 | |
| 20260504001113 | 64 | 247 | 1.0 | 2.0 | 0.00 | 0.00 | 0.00 | 1011.0 | |
| 20260504001013 | 64 | 225 | 2.0 | 4.0 | 0.00 | 0.00 | 0.00 | 1011.1 | |
| 20260504000913 | 64 | 225 | 2.0 | 3.0 | 0.00 | 0.00 | 0.00 | 1011.2 | |
| 20260504000513 | 64 | 135 | 1.0 | 1.0 | 0.00 | 0.00 | 0.00 | 1011.0 | |
| 20260504000113 | 64 | 247 | 4.0 | 6.0 | 0.00 | 0.00 | 0.00 | 1011.2 | |
| 20260503235413 | 64 | 225 | 3.0 | 4.0 | 0.00 | 0.00 | 0.00 | 1011.2 | |
| 20260503234713 | 63 | 225 | 3.0 | 4.0 | 0.00 | 0.00 | 0.00 | 1011.0 | |
| 20260503233713 | 63 | 157 | 1.0 | 2.0 | 0.00 | 0.00 | 0.00 | 1011.1 | |
| 20260503233313 | 63 | 225 | 3.0 | 4.0 | 0.00 | 0.00 | 0.00 | 1011.1 | |
| 20260503233213 | 63 | 202 | 3.0 | 4.0 | 0.00 | 0.00 | 0.00 | 1011.1 | |
| 20260503232513 | 63 | 247 | 4.0 | 6.0 | 0.00 | 0.00 | 0.00 | 1011.1 | |
| 20260503232413 | 63 | 225 | 4.0 | 6.0 | 0.00 | 0.00 | 0.00 | 1011.1 | |
| 20260503231713 | 63 | 202 | 3.0 | 4.0 | 0.00 | 0.00 | 0.00 | 1011.3 | |
| 20260503231613 | 63 | 225 | 3.0 | 5.0 | 0.00 | 0.00 | 0.00 | 1011.2 | |
| 20260503230613 | 63 | 225 | 4.0 | 8.0 | 0.00 | 0.00 | 0.00 | 1011.2 | |
| 20260503225613 | 64 | 225 | 5.0 | 6.0 | 0.00 | 0.00 | 0.00 | 1011.2 | |
| 20260503225213 | 64 | 180 | 3.0 | 6.0 | 0.00 | 0.00 | 0.00 | 1011.2 | |
| 20260503225113 | 64 | 202 | 3.0 | 5.0 | 0.00 | 0.00 | 0.00 | 1011.3 | |
| 20260503225013 | 64 | 202 | 4.0 | 5.0 | 0.00 | 0.00 | 0.00 | 1011.4 | |
| 20260503224313 | 64 | 225 | 5.0 | 7.0 | 0.00 | 0.00 | 0.00 | 1011.3 | |
| 20260503223914 | 65 | 225 | 4.0 | 6.0 | 0.00 | 0.00 | 0.00 | 1011.6 | |
| 20260503223513 | 65 | 270 | 3.0 | 5.0 | 0.00 | 0.00 | 0.00 | 1011.2 | |
| 20260503222813 | 64 | 225 | 3.0 | 8.0 | 0.00 | 0.00 | 0.00 | 1011.3 | |
| 20260503222713 | 64 | 202 | 4.0 | 5.0 | 0.00 | 0.00 | 0.00 | 1011.2 | |
| 20260503222613 | 64 | 270 | 4.0 | 5.0 | 0.00 | 0.00 | 0.00 | 1011.8 | |
| 20260503221913 | 65 | 247 | 5.0 | 7.0 | 0.00 | 0.00 | 0.00 | 1011.4 | |
| 20260503221813 | 65 | 202 | 4.0 | 6.0 | 0.00 | 0.00 | 0.00 | 1011.4 | |
| 20260503221113 | 66 | 225 | 2.0 | 5.0 | 0.00 | 0.00 | 0.00 | 1011.9 | |
| 20260503220713 | 65 | 247 | 4.0 | 5.0 | 0.00 | 0.00 | 0.00 | 1011.4 | |
| 20260503220313 | 65 | 225 | 3.0 | 5.0 | 0.00 | 0.00 | 0.00 | 1011.8 | |
| 20260503215913 | 66 | 202 | 3.0 | 5.0 | 0.00 | 0.00 | 0.00 | 1011.9 | |
| 20260503215813 | 66 | 247 | 3.0 | 4.0 | 0.00 | 0.00 | 0.00 | 1012.0 | |
| 20260503215414 | 66 | 202 | 1.0 | 2.0 | 0.00 | 0.00 | 0.00 | 1011.9 | |
| 20260503215313 | 66 | 180 | 2.0 | 5.0 | 0.00 | 0.00 | 0.00 | 1012.0 | |
| 20260503215213 | 66 | 112 | 3.0 | 5.0 | 0.00 | 0.00 | 0.00 | 1011.5 | |
| 20260503214813 | 67 | 180 | 2.0 | 4.0 | 0.00 | 0.00 | 0.00 | 1011.6 | |
| 20260503214413 | 67 | 270 | 1.0 | 2.0 | 0.00 | 0.00 | 0.00 | 1012.1 | |
| 20260503213713 | 66 | 292 | 2.0 | 3.0 | 0.00 | 0.00 | 0.00 | 1012.0 | |
| 20260503213613 | 66 | 292 | 2.0 | 3.0 | 0.00 | 0.00 | 0.00 | 1012.1 | |
| 20260503213514 | 66 | 225 | 3.0 | 4.0 | 0.00 | 0.00 | 0.00 | 1012.0 | |
| 20260503212813 | 67 | 157 | 1.0 | 2.0 | 0.00 | 0.00 | 0.00 | 1012.2 | |
| 20260503211813 | 66 | 45 | 0.0 | 2.0 | 0.00 | 0.00 | 0.00 | 1012.2 | |
| 20260503211713 | 66 | 315 | 2.0 | 3.0 | 0.00 | 0.00 | 0.00 | 1012.2 | |
| 20260503211313 | 66 | 22 | 1.0 | 2.0 | 0.00 | 0.00 | 0.00 | 1012.2 | |
| 20260503211213 | 66 | 22 | 0.0 | 1.0 | 0.00 | 0.00 | 0.00 | 1012.3 | |
| 20260503211113 | 66 | 180 | 1.0 | 2.0 | 0.00 | 0.00 | 0.00 | 1012.4 | |
| 20260503210713 | 66 | 247 | 1.0 | 2.0 | 0.00 | 0.00 | 0.00 | 1012.4 | |
| 20260503210013 | 66 | 247 | 2.0 | 4.0 | 0.00 | 0.00 | 0.00 | 1012.3 | |
| 20260503204713 | 63 | 202 | 1.0 | 2.0 | 0.00 | 0.00 | 0.00 | 1012.3 | |
| 20260503204613 | 63 | 225 | 1.0 | 2.0 | 0.00 | 0.00 | 0.00 | 1012.3 | |
| 20260503204514 | 63 | 225 | 2.0 | 3.0 | 0.00 | 0.00 | 0.00 | 1012.3 | |
| 20260503203513 | 64 | 315 | 2.0 | 3.0 | 0.00 | 0.00 | 0.00 | 1012.2 | |
| 20260503202813 | 64 | 225 | 0.0 | 0.0 | 0.00 | 0.00 | 0.00 | 1012.3 | |
| 20260503201513 | 63 | 202 | 1.0 | 2.0 | 0.00 | 0.00 | 0.00 | 1012.3 | |
| 20260503201413 | 63 | 315 | 1.0 | 3.0 | 0.00 | 0.00 | 0.00 | 1012.5 | |
| 20260503201313 | 63 | 337 | 1.0 | 1.0 | 0.00 | 0.00 | 0.00 | 1012.4 | |
| 20260503201214 | 63 | 337 | 1.0 | 2.0 | 0.00 | 0.00 | 0.00 | 1012.4 | |
| 20260503201113 | 63 | 292 | 2.0 | 2.0 | 0.00 | 0.00 | 0.00 | 1012.4 | |
| 20260503201013 | 64 | 315 | 2.0 | 3.0 | 0.00 | 0.00 | 0.00 | 1012.5 | |
| 20260503200313 | 65 | 292 | 0.0 | 1.0 | 0.00 | 0.00 | 0.00 | 1012.6 | |
| 20260503195913 | 65 | 247 | 1.0 | 2.0 | 0.00 | 0.00 | 0.00 | 1012.6 | |
| 20260503195813 | 65 | 225 | 1.0 | 2.0 | 0.00 | 0.00 | 0.00 | 1012.6 | |
| 20260503195413 | 66 | 180 | 1.0 | 2.0 | 0.00 | 0.00 | 0.00 | 1012.5 | |
| 20260503195013 | 66 | 0 | 1.0 | 2.0 | 0.00 | 0.00 | 0.00 | 1012.6 | |
| 20260503194913 | 66 | 67 | 2.0 | 3.0 | 0.00 | 0.00 | 0.00 | 1012.9 | |
| 20260503194813 | 66 | 315 | 2.0 | 3.0 | 0.00 | 0.00 | 0.00 | 1012.7 | |
| 20260503194413 | 67 | 45 | 3.0 | 5.0 | 0.00 | 0.00 | 0.00 | 1012.7 | |
| 20260503194013 | 66 | 45 | 1.0 | 2.0 | 0.00 | 0.00 | 0.00 | 1012.7 | |
| 20260503193313 | 65 | 45 | 2.0 | 3.0 | 0.00 | 0.00 | 0.00 | 1013.0 | |
| 20260503193213 | 65 | 22 | 1.0 | 2.0 | 0.00 | 0.00 | 0.00 | 1012.9 | |
| 20260503193113 | 65 | 45 | 1.0 | 2.0 | 0.00 | 0.00 | 0.00 | 1013.0 | |
| 20260503191813 | 63 | 292 | 2.0 | 3.0 | 0.00 | 0.00 | 0.00 | 1013.0 | |
| 20260503191413 | 62 | 180 | 1.0 | 1.0 | 0.00 | 0.00 | 0.00 | 1013.1 | |
| 20260503191313 | 62 | 45 | 0.0 | 1.0 | 0.00 | 0.00 | 0.00 | 1013.0 | |
| 20260503191213 | 62 | 0 | 2.0 | 4.0 | 0.00 | 0.00 | 0.00 | 1013.1 | |
| 20260503190813 | 61 | 45 | 2.0 | 3.0 | 0.00 | 0.00 | 0.00 | 1013.2 | |
| 20260503190713 | 61 | 0 | 1.0 | 2.0 | 0.00 | 0.00 | 0.00 | 1013.2 | |
| 20260503190014 | 61 | 22 | 2.0 | 2.0 | 0.00 | 0.00 | 0.00 | 1013.2 | |
| 20260503185913 | 61 | 315 | 2.0 | 2.0 | 0.00 | 0.00 | 0.00 | 1013.1 | |
| 20260503185214 | 60 | 45 | 1.0 | 2.0 | 0.00 | 0.00 | 0.00 | 1013.3 | |
| 20260503185113 | 60 | 135 | 1.0 | 1.0 | 0.00 | 0.00 | 0.00 | 1013.3 | |
| 20260503184713 | 60 | 292 | 1.0 | 1.0 | 0.00 | 0.00 | 0.00 | 1013.3 | |
| 20260503184613 | 59 | 45 | 1.0 | 3.0 | 0.00 | 0.00 | 0.00 | 1013.4 | |
| 20260503184213 | 58 | 292 | 1.0 | 1.0 | 0.00 | 0.00 | 0.00 | 1013.5 | |
| 20260503184113 | 58 | 292 | 0.0 | 1.0 | 0.00 | 0.00 | 0.00 | 1013.3 | |
| 20260503184013 | 58 | 0 | 1.0 | 2.0 | 0.00 | 0.00 | 0.00 | 1013.5 | |
| 20260503183913 | 58 | 45 | 1.0 | 2.0 | 0.00 | 0.00 | 0.00 | 1013.5 | |
| 20260503183513 | 58 | 45 | 1.0 | 2.0 | 0.00 | 0.00 | 0.00 | 1013.5 | |
| 20260503183413 | 58 | 22 | 1.0 | 2.0 | 0.00 | 0.00 | 0.00 | 1013.5 | |
| 20260503183013 | 58 | 337 | 1.0 | 2.0 | 0.00 | 0.00 | 0.00 | 1013.4 | |
| 20260503182613 | 57 | 45 | 1.0 | 1.0 | 0.00 | 0.00 | 0.00 | 1013.4 | |
| 20260503182514 | 57 | 45 | 0.0 | 0.0 | 0.00 | 0.00 | 0.00 | 1013.6 | |
| 20260503181513 | 57 | 337 | 2.0 | 3.0 | 0.00 | 0.00 | 0.00 | 1013.6 | |
| 20260503181113 | 57 | 315 | 1.0 | 2.0 | 0.00 | 0.00 | 0.00 | 1013.8 | |
| 20260503180713 | 57 | 157 | 0.0 | 0.0 | 0.00 | 0.00 | 0.00 | 1013.6 | |
| 20260503180313 | 57 | 247 | 1.0 | 2.0 | 0.00 | 0.00 | 0.00 | 1013.6 | |
| 20260503180213 | 57 | 270 | 1.0 | 2.0 | 0.00 | 0.00 | 0.00 | 1013.7 | |
| 20260503174913 | 58 | 67 | 0.0 | 2.0 | 0.00 | 0.00 | 0.00 | 1013.5 | |
| 20260503174813 | 58 | 67 | 1.0 | 2.0 | 0.00 | 0.00 | 0.00 | 1013.4 | |
| 20260503174714 | 58 | 45 | 2.0 | 2.0 | 0.00 | 0.00 | 0.00 | 1013.5 | |
| 20260503174613 | 58 | 337 | 2.0 | 2.0 | 0.00 | 0.00 | 0.00 | 1013.5 | |
| 20260503174514 | 58 | 337 | 2.0 | 2.0 | 0.00 | 0.00 | 0.00 | 1013.2 | |
| 20260503173814 | 58 | 202 | 1.0 | 2.0 | 0.00 | 0.00 | 0.00 | 1013.4 | |
| 20260503173413 | 58 | 202 | 0.0 | 1.0 | 0.00 | 0.00 | 0.00 | 1013.3 | |
| 20260503173314 | 58 | 157 | 1.0 | 2.0 | 0.00 | 0.00 | 0.00 | 1013.5 | |
| 20260503173213 | 58 | 202 | 2.0 | 3.0 | 0.00 | 0.00 | 0.00 | 1013.3 | |
| 20260503173113 | 58 | 180 | 1.0 | 2.0 | 0.00 | 0.00 | 0.00 | 1013.5 | |
| 20260503172713 | 58 | 225 | 2.0 | 3.0 | 0.00 | 0.00 | 0.00 | 1013.2 | |
| 20260503172313 | 58 | 225 | 1.0 | 2.0 | 0.00 | 0.00 | 0.00 | 1013.2 | |
| 20260503172214 | 58 | 225 | 1.0 | 1.0 | 0.00 | 0.00 | 0.00 | 1013.4 | |
| 20260503172114 | 58 | 202 | 1.0 | 1.0 | 0.00 | 0.00 | 0.00 | 1013.2 | |
| 20260503170213 | 58 | 225 | 2.0 | 4.0 | 0.00 | 0.00 | 0.00 | 1013.1 | |
| 20260503170113 | 58 | 202 | 2.0 | 3.0 | 0.00 | 0.00 | 0.00 | 1013.1 | |
| 20260503150813 | 56 | 157 | 0.0 | 1.0 | 0.00 | 0.00 | 0.00 | 1012.5 | |
| 20260503150715 | 56 | 135 | 0.0 | 1.0 | 0.00 | 0.00 | 0.00 | 1012.6 | |
| 20260503150613 | 56 | 180 | 0.0 | 0.0 | 0.00 | 0.00 | 0.00 | 1012.4 | |
| 20260503140113 | 55 | 45 | 1.0 | 1.0 | 0.00 | 0.00 | 0.00 | 1012.1 | |
| 20260503131414 | 55 | 180 | 0.0 | 1.0 | 0.00 | 0.00 | 0.00 | 1011.8 | |
| 20260503131313 | 55 | 225 | 0.0 | 1.0 | 0.00 | 0.00 | 0.00 | 1011.7 | |
| 20260503131213 | 55 | 202 | 1.0 | 2.0 | 0.00 | 0.00 | 0.00 | 1011.8 | |
| 20260503131113 | 55 | 225 | 2.0 | 3.0 | 0.00 | 0.00 | 0.00 | 1011.7 | |
| 20260503131013 | 55 | 202 | 1.0 | 3.0 | 0.00 | 0.00 | 0.00 | 1011.8 | |
| 20260503130913 | 55 | 202 | 0.0 | 1.0 | 0.00 | 0.00 | 0.00 | 1011.8 | |
| 20260503130513 | 55 | 225 | 3.0 | 3.0 | 0.00 | 0.00 | 0.00 | 1011.6 | |
| 20260503130413 | 56 | 225 | 2.0 | 3.0 | 0.00 | 0.00 | 0.00 | 1011.6 | |
| 20260503110213 | 57 | 225 | 1.0 | 1.0 | 0.00 | 0.00 | 0.00 | 1011.3 | |
| 20260503110113 | 57 | 202 | 1.0 | 1.0 | 0.00 | 0.00 | 0.00 | 1011.3 | |
| 20260503090113 | 57 | 202 | 1.0 | 2.0 | 0.00 | 0.00 | 0.00 | 1012.0 | |
| 20260503081213 | 57 | 202 | 1.0 | 2.0 | 0.00 | 0.00 | 0.00 | 1012.0 | |
| 20260503081113 | 57 | 225 | 1.0 | 2.0 | 0.00 | 0.00 | 0.00 | 1011.5 | |
| 20260503081013 | 57 | 225 | 2.0 | 2.0 | 0.00 | 0.00 | 0.00 | 1011.9 | |
| 20260503080913 | 57 | 202 | 1.0 | 2.0 | 0.00 | 0.00 | 0.00 | 1011.9 | |
| 20260503080213 | 56 | 225 | 1.0 | 1.0 | 0.00 | 0.00 | 0.00 | 1011.8 | |
| 20260503072913 | 56 | 225 | 2.0 | 4.0 | 0.00 | 0.00 | 0.00 | 1011.6 | |
| 20260503072813 | 56 | 202 | 2.0 | 3.0 | 0.00 | 0.00 | 0.00 | 1011.5 | |
| 20260503072413 | 56 | 157 | 2.0 | 2.0 | 0.00 | 0.00 | 0.00 | 1011.5 | |
| 20260503071713 | 56 | 225 | 1.0 | 2.0 | 0.00 | 0.00 | 0.00 | 1011.5 | |
| 20260503071613 | 56 | 202 | 1.0 | 2.0 | 0.00 | 0.00 | 0.00 | 1011.5 | |
| 20260503071213 | 56 | 202 | 1.0 | 2.0 | 0.00 | 0.00 | 0.00 | 1011.4 | |
| 20260503071113 | 56 | 225 | 1.0 | 2.0 | 0.00 | 0.00 | 0.00 | 1011.4 | |
| 20260503071013 | 56 | 202 | 1.0 | 2.0 | 0.00 | 0.00 | 0.00 | 1011.1 | |
| 20260503055113 | 58 | 270 | 1.0 | 1.0 | 0.00 | 0.00 | 0.00 | 1011.2 | |
| 20260503054713 | 58 | 180 | 1.0 | 3.0 | 0.00 | 0.00 | 0.00 | 1011.2 |